����������;��������(kWh)
2017-09-25 00:00;85,7
2017-09-25 00:15;90,05
2017-09-25 00:30;87,15
2017-09-25 00:45;95,85
2017-09-25 01:00;99,05
2017-09-25 01:15;92,75
2017-09-25 01:30;91,35
2017-09-25 01:45;92,95
2017-09-25 02:00;92,45
2017-09-25 02:15;91,05
2017-09-25 02:30;90,35
2017-09-25 02:45;91,05
2017-09-25 03:00;92,65
2017-09-25 03:15;90,7
2017-09-25 03:30;90,05
2017-09-25 03:45;92,05
2017-09-25 04:00;90,95
2017-09-25 04:15;91,9
2017-09-25 04:30;90,25
2017-09-25 04:45;91
2017-09-25 05:00;91,25
2017-09-25 05:15;91,65
2017-09-25 05:30;90,1
2017-09-25 05:45;95,05
2017-09-25 06:00;98,25
2017-09-25 06:15;97,05
2017-09-25 06:30;98,8
2017-09-25 06:45;101,75
2017-09-25 07:00;100,35
2017-09-25 07:15;99,15
2017-09-25 07:30;149,8
2017-09-25 07:45;155,5
2017-09-25 08:00;136
2017-09-25 08:15;120,35
2017-09-25 08:30;123,6
2017-09-25 08:45;145
2017-09-25 09:00;146,5
2017-09-25 09:15;149,1
2017-09-25 09:30;154,55
2017-09-25 09:45;165,1
2017-09-25 10:00;166,3
2017-09-25 10:15;175,1
2017-09-25 10:30;188,45
2017-09-25 10:45;182,1
2017-09-25 11:00;207,05
2017-09-25 11:15;210,35
2017-09-25 11:30;205,4
2017-09-25 11:45;203,35
2017-09-25 12:00;213,55
2017-09-25 12:15;213,3
2017-09-25 12:30;217,5
2017-09-25 12:45;216,85
2017-09-25 13:00;205,2
2017-09-25 13:15;209,5
2017-09-25 13:30;205,9
2017-09-25 13:45;216,5
2017-09-25 14:00;208,7
2017-09-25 14:15;197,6
2017-09-25 14:30;204,05
2017-09-25 14:45;204,45
2017-09-25 15:00;188,9
2017-09-25 15:15;184,7
2017-09-25 15:30;187,8
2017-09-25 15:45;181,3
2017-09-25 16:00;178,85
2017-09-25 16:15;184,1
2017-09-25 16:30;168,2
2017-09-25 16:45;168,85
2017-09-25 17:00;163,1
2017-09-25 17:15;149,35
2017-09-25 17:30;149,55
2017-09-25 17:45;154,35
2017-09-25 18:00;148,5
2017-09-25 18:15;152,05
2017-09-25 18:30;149,5
2017-09-25 18:45;135,95
2017-09-25 19:00;134,95
2017-09-25 19:15;131,5
2017-09-25 19:30;129,45
2017-09-25 19:45;127,9
2017-09-25 20:00;124,75
2017-09-25 20:15;127,2
2017-09-25 20:30;126,65
2017-09-25 20:45;116,2
2017-09-25 21:00;123,4
2017-09-25 21:15;117,55
2017-09-25 21:30;117
2017-09-25 21:45;109,6
2017-09-25 22:00;102
2017-09-25 22:15;106,3
2017-09-25 22:30;104,35
2017-09-25 22:45;101,3
2017-09-25 23:00;105,3
2017-09-25 23:15;90,95
2017-09-25 23:30;89,2
2017-09-25 23:45;91,45
2017-09-26 00:00;93,25
2017-09-26 00:15;94,9
2017-09-26 00:30;92,9
2017-09-26 00:45;89,95
2017-09-26 01:00;90,95
2017-09-26 01:15;91,2
2017-09-26 01:30;88,3
2017-09-26 01:45;89
2017-09-26 02:00;88,3
2017-09-26 02:15;86,1
2017-09-26 02:30;85,9
2017-09-26 02:45;87,95
2017-09-26 03:00;85,85
2017-09-26 03:15;86,2
2017-09-26 03:30;87,8
2017-09-26 03:45;85,45
2017-09-26 04:00;86,25
2017-09-26 04:15;86,9
2017-09-26 04:30;85,15
2017-09-26 04:45;85,55
2017-09-26 05:00;87,8
2017-09-26 05:15;88
2017-09-26 05:30;84,3
2017-09-26 05:45;84,7
2017-09-26 06:00;88,85
2017-09-26 06:15;86,25
2017-09-26 06:30;93,6
2017-09-26 06:45;100,65
2017-09-26 07:00;95,15
2017-09-26 07:15;94,1
2017-09-26 07:30;126,25
2017-09-26 07:45;121,15
2017-09-26 08:00;106,95
2017-09-26 08:15;104,6
2017-09-26 08:30;119,05
2017-09-26 08:45;142,65
2017-09-26 09:00;155
2017-09-26 09:15;137,95
2017-09-26 09:30;156,65
2017-09-26 09:45;161,35
2017-09-26 10:00;165,45
2017-09-26 10:15;163,1
2017-09-26 10:30;174,85
2017-09-26 10:45;186,35
2017-09-26 11:00;193,45
2017-09-26 11:15;205,15
2017-09-26 11:30;207,9
2017-09-26 11:45;207,55
2017-09-26 12:00;211,9
2017-09-26 12:15;217,25
2017-09-26 12:30;226,9
2017-09-26 12:45;230,8
2017-09-26 13:00;213,65
2017-09-26 13:15;207,45
2017-09-26 13:30;209,65
2017-09-26 13:45;248,6
2017-09-26 14:00;249,5
2017-09-26 14:15;223,95
2017-09-26 14:30;222,35
2017-09-26 14:45;222,95
2017-09-26 15:00;216,85
2017-09-26 15:15;208,3
2017-09-26 15:30;203,2
2017-09-26 15:45;199,75
2017-09-26 16:00;198,7
2017-09-26 16:15;197,35
2017-09-26 16:30;189,1
2017-09-26 16:45;191,35
2017-09-26 17:00;180,1
2017-09-26 17:15;175,85
2017-09-26 17:30;172,75
2017-09-26 17:45;174,65
2017-09-26 18:00;159,15
2017-09-26 18:15;156,7
2017-09-26 18:30;162,5
2017-09-26 18:45;143,15
2017-09-26 19:00;144,15
2017-09-26 19:15;139,75
2017-09-26 19:30;137,2
2017-09-26 19:45;135,65
2017-09-26 20:00;132,4
2017-09-26 20:15;137,05
2017-09-26 20:30;132,15
2017-09-26 20:45;127,05
2017-09-26 21:00;125,45
2017-09-26 21:15;122,8
2017-09-26 21:30;120,2
2017-09-26 21:45;114,25
2017-09-26 22:00;105,75
2017-09-26 22:15;105,95
2017-09-26 22:30;103,55
2017-09-26 22:45;101,55
2017-09-26 23:00;101,2
2017-09-26 23:15;86,8
2017-09-26 23:30;86,95
2017-09-26 23:45;86
2017-09-27 00:00;83,05
2017-09-27 00:15;85,65
2017-09-27 00:30;84,15
2017-09-27 00:45;83,5
2017-09-27 01:00;83,85
2017-09-27 01:15;83,75
2017-09-27 01:30;82,15
2017-09-27 01:45;83,25
2017-09-27 02:00;81,35
2017-09-27 02:15;83,95
2017-09-27 02:30;82,1
2017-09-27 02:45;82,4
2017-09-27 03:00;82,95
2017-09-27 03:15;81,4
2017-09-27 03:30;83,65
2017-09-27 03:45;81,7
2017-09-27 04:00;81,35
2017-09-27 04:15;80,55
2017-09-27 04:30;79,6
2017-09-27 04:45;81,45
2017-09-27 05:00;82,05
2017-09-27 05:15;83,45
2017-09-27 05:30;82,6
2017-09-27 05:45;82,4
2017-09-27 06:00;88,05
2017-09-27 06:15;88,85
2017-09-27 06:30;105,45
2017-09-27 06:45;105,4
2017-09-27 07:00;104,5
2017-09-27 07:15;102,3
2017-09-27 07:30;132,65
2017-09-27 07:45;126,95
2017-09-27 08:00;114,15
2017-09-27 08:15;110,65
2017-09-27 08:30;119,75
2017-09-27 08:45;155,05
2017-09-27 09:00;161,15
2017-09-27 09:15;145,35
2017-09-27 09:30;152,25
2017-09-27 09:45;163,5
2017-09-27 10:00;171,2
2017-09-27 10:15;174,6
2017-09-27 10:30;188,65
2017-09-27 10:45;192,05
2017-09-27 11:00;199,65
2017-09-27 11:15;205,5
2017-09-27 11:30;207,35
2017-09-27 11:45;210,05
2017-09-27 12:00;215,8
2017-09-27 12:15;220,45
2017-09-27 12:30;214,35
2017-09-27 12:45;220,25
2017-09-27 13:00;210,75
2017-09-27 13:15;218,1
2017-09-27 13:30;210,35
2017-09-27 13:45;204,25
2017-09-27 14:00;209,75
2017-09-27 14:15;217,15
2017-09-27 14:30;213,5
2017-09-27 14:45;205,25
2017-09-27 15:00;198,05
2017-09-27 15:15;196,6
2017-09-27 15:30;198,4
2017-09-27 15:45;196,2
2017-09-27 16:00;193,9
2017-09-27 16:15;188,4
2017-09-27 16:30;184,4
2017-09-27 16:45;178,85
2017-09-27 17:00;178,15
2017-09-27 17:15;180,25
2017-09-27 17:30;172,5
2017-09-27 17:45;172,4
2017-09-27 18:00;167,55
2017-09-27 18:15;152,9
2017-09-27 18:30;143,9
2017-09-27 18:45;134,3
2017-09-27 19:00;133,05
2017-09-27 19:15;135
2017-09-27 19:30;136,3
2017-09-27 19:45;134,15
2017-09-27 20:00;118,6
2017-09-27 20:15;118,9
2017-09-27 20:30;117,4
2017-09-27 20:45;113,7
2017-09-27 21:00;109,95
2017-09-27 21:15;111,35
2017-09-27 21:30;109,35
2017-09-27 21:45;98,85
2017-09-27 22:00;93,9
2017-09-27 22:15;97,9
2017-09-27 22:30;99,2
2017-09-27 22:45;91,85
2017-09-27 23:00;95,55
2017-09-27 23:15;84,85
2017-09-27 23:30;84,7
2017-09-27 23:45;82,4
2017-09-28 00:00;82,85
2017-09-28 00:15;85,2
2017-09-28 00:30;82,45
2017-09-28 00:45;84,05
2017-09-28 01:00;80,9
2017-09-28 01:15;85,45
2017-09-28 01:30;81,75
2017-09-28 01:45;82,8
2017-09-28 02:00;81,6
2017-09-28 02:15;81,9
2017-09-28 02:30;83,25
2017-09-28 02:45;80,95
2017-09-28 03:00;82,1
2017-09-28 03:15;81,6
2017-09-28 03:30;84,9
2017-09-28 03:45;83,6
2017-09-28 04:00;83,65
2017-09-28 04:15;82,5
2017-09-28 04:30;83,95
2017-09-28 04:45;83,75
2017-09-28 05:00;84,55
2017-09-28 05:15;87,4
2017-09-28 05:30;85,5
2017-09-28 05:45;84,45
2017-09-28 06:00;90,15
2017-09-28 06:15;89,35
2017-09-28 06:30;101,5
2017-09-28 06:45;110,3
2017-09-28 07:00;100,2
2017-09-28 07:15;100,75
2017-09-28 07:30;132,3
2017-09-28 07:45;123,85
2017-09-28 08:00;112,5
2017-09-28 08:15;116,25
2017-09-28 08:30;121,05
2017-09-28 08:45;154,55
2017-09-28 09:00;158,4
2017-09-28 09:15;146,9
2017-09-28 09:30;161,4
2017-09-28 09:45;168,1
2017-09-28 10:00;170,65
2017-09-28 10:15;166,2
2017-09-28 10:30;170,35
2017-09-28 10:45;178,25
2017-09-28 11:00;180,6
2017-09-28 11:15;188,5
2017-09-28 11:30;191,6
2017-09-28 11:45;193,65
2017-09-28 12:00;188,7
2017-09-28 12:15;188,8
2017-09-28 12:30;194,1
2017-09-28 12:45;200,1
2017-09-28 13:00;196
2017-09-28 13:15;194,15
2017-09-28 13:30;202,1
2017-09-28 13:45;200,05
2017-09-28 14:00;203,8
2017-09-28 14:15;203,6
2017-09-28 14:30;203,5
2017-09-28 14:45;200,3
2017-09-28 15:00;196,5
2017-09-28 15:15;185,25
2017-09-28 15:30;190,7
2017-09-28 15:45;190,85
2017-09-28 16:00;183
2017-09-28 16:15;177,05
2017-09-28 16:30;171,35
2017-09-28 16:45;167,9
2017-09-28 17:00;159,65
2017-09-28 17:15;155,2
2017-09-28 17:30;153,55
2017-09-28 17:45;154,95
2017-09-28 18:00;147,25
2017-09-28 18:15;138,35
2017-09-28 18:30;137,6
2017-09-28 18:45;128,55
2017-09-28 19:00;130,75
2017-09-28 19:15;127,65
2017-09-28 19:30;127,3
2017-09-28 19:45;124,7
2017-09-28 20:00;124,75
2017-09-28 20:15;121,35
2017-09-28 20:30;122,8
2017-09-28 20:45;117
2017-09-28 21:00;117,6
2017-09-28 21:15;114,7
2017-09-28 21:30;112,35
2017-09-28 21:45;110,15
2017-09-28 22:00;101,8
2017-09-28 22:15;107,4
2017-09-28 22:30;107,9
2017-09-28 22:45;105,7
2017-09-28 23:00;108
2017-09-28 23:15;96,15
2017-09-28 23:30;92,85
2017-09-28 23:45;86,3
2017-09-29 00:00;85,3
2017-09-29 00:15;87,1
2017-09-29 00:30;87,8
2017-09-29 00:45;84,8
2017-09-29 01:00;86,6
2017-09-29 01:15;86,55
2017-09-29 01:30;83,45
2017-09-29 01:45;84,2
2017-09-29 02:00;82,2
2017-09-29 02:15;84,05
2017-09-29 02:30;82,15
2017-09-29 02:45;83,25
2017-09-29 03:00;81,15
2017-09-29 03:15;82,6
2017-09-29 03:30;81,4
2017-09-29 03:45;82,7
2017-09-29 04:00;82,95
2017-09-29 04:15;81,65
2017-09-29 04:30;83,1
2017-09-29 04:45;80,9
2017-09-29 05:00;81,9
2017-09-29 05:15;82,4
2017-09-29 05:30;84,25
2017-09-29 05:45;84,3
2017-09-29 06:00;89,45
2017-09-29 06:15;86,6
2017-09-29 06:30;89,6
2017-09-29 06:45;91,95
2017-09-29 07:00;94,65
2017-09-29 07:15;103,9
2017-09-29 07:30;131,1
2017-09-29 07:45;123,25
2017-09-29 08:00;111,45
2017-09-29 08:15;110,8
2017-09-29 08:30;121,1
2017-09-29 08:45;148,9
2017-09-29 09:00;140,85
2017-09-29 09:15;131,55
2017-09-29 09:30;140,7
2017-09-29 09:45;144
2017-09-29 10:00;153,7
2017-09-29 10:15;147,8
2017-09-29 10:30;154,5
2017-09-29 10:45;168,35
2017-09-29 11:00;164,25
2017-09-29 11:15;162,6
2017-09-29 11:30;159,2
2017-09-29 11:45;161,1
2017-09-29 12:00;166,2
2017-09-29 12:15;172,9
2017-09-29 12:30;178,3
2017-09-29 12:45;178,65
2017-09-29 13:00;177,7
2017-09-29 13:15;179,65
2017-09-29 13:30;180,9
2017-09-29 13:45;169,9
2017-09-29 14:00;176,4
2017-09-29 14:15;169,1
2017-09-29 14:30;178,7
2017-09-29 14:45;165,95
2017-09-29 15:00;168,05
2017-09-29 15:15;150,2
2017-09-29 15:30;158,35
2017-09-29 15:45;163
2017-09-29 16:00;151,5
2017-09-29 16:15;153,25
2017-09-29 16:30;150,5
2017-09-29 16:45;143,1
2017-09-29 17:00;151,1
2017-09-29 17:15;138,7
2017-09-29 17:30;144,4
2017-09-29 17:45;146,9
2017-09-29 18:00;144
2017-09-29 18:15;127,05
2017-09-29 18:30;127,15
2017-09-29 18:45;120,35
2017-09-29 19:00;122,95
2017-09-29 19:15;117,2
2017-09-29 19:30;116,8
2017-09-29 19:45;116,2
2017-09-29 20:00;110,4
2017-09-29 20:15;106,75
2017-09-29 20:30;107,6
2017-09-29 20:45;107,35
2017-09-29 21:00;107
2017-09-29 21:15;104,6
2017-09-29 21:30;104,75
2017-09-29 21:45;97,05
2017-09-29 22:00;93,85
2017-09-29 22:15;94,7
2017-09-29 22:30;94,3
2017-09-29 22:45;92,8
2017-09-29 23:00;94,85
2017-09-29 23:15;87,3
2017-09-29 23:30;84,7
2017-09-29 23:45;84,45
2017-09-30 00:00;83,2
2017-09-30 00:15;80,35
2017-09-30 00:30;81,55
2017-09-30 00:45;79,5
2017-09-30 01:00;80,5
2017-09-30 01:15;79,95
2017-09-30 01:30;80,25
2017-09-30 01:45;79,2
2017-09-30 02:00;79,1
2017-09-30 02:15;80,35
2017-09-30 02:30;77,8
2017-09-30 02:45;80,45
2017-09-30 03:00;77,65
2017-09-30 03:15;78,55
2017-09-30 03:30;79,85
2017-09-30 03:45;78,7
2017-09-30 04:00;79
2017-09-30 04:15;77,7
2017-09-30 04:30;79,2
2017-09-30 04:45;77,9
2017-09-30 05:00;77,45
2017-09-30 05:15;77,3
2017-09-30 05:30;77,2
2017-09-30 05:45;78,05
2017-09-30 06:00;80,5
2017-09-30 06:15;82,05
2017-09-30 06:30;81
2017-09-30 06:45;79,65
2017-09-30 07:00;79,05
2017-09-30 07:15;79,15
2017-09-30 07:30;80,9
2017-09-30 07:45;77,2
2017-09-30 08:00;78,7
2017-09-30 08:15;76,1
2017-09-30 08:30;77,1
2017-09-30 08:45;75,6
2017-09-30 09:00;75,9
2017-09-30 09:15;76,35
2017-09-30 09:30;76,45
2017-09-30 09:45;77,85
2017-09-30 10:00;76,3
2017-09-30 10:15;75,7
2017-09-30 10:30;75,5
2017-09-30 10:45;74,75
2017-09-30 11:00;81,6
2017-09-30 11:15;81,4
2017-09-30 11:30;81,05
2017-09-30 11:45;80,45
2017-09-30 12:00;81,05
2017-09-30 12:15;87,1
2017-09-30 12:30;86,9
2017-09-30 12:45;88,55
2017-09-30 13:00;86,3
2017-09-30 13:15;85,55
2017-09-30 13:30;82,2
2017-09-30 13:45;81,65
2017-09-30 14:00;84
2017-09-30 14:15;85,95
2017-09-30 14:30;87,65
2017-09-30 14:45;83,05
2017-09-30 15:00;85,3
2017-09-30 15:15;87,7
2017-09-30 15:30;84,45
2017-09-30 15:45;83,5
2017-09-30 16:00;83,5
2017-09-30 16:15;81,75
2017-09-30 16:30;82,15
2017-09-30 16:45;81,1
2017-09-30 17:00;82,1
2017-09-30 17:15;84,8
2017-09-30 17:30;85,3
2017-09-30 17:45;82,45
2017-09-30 18:00;85,2
2017-09-30 18:15;80,9
2017-09-30 18:30;82,15
2017-09-30 18:45;82,85
2017-09-30 19:00;89,85
2017-09-30 19:15;92,5
2017-09-30 19:30;89,65
2017-09-30 19:45;91,25
2017-09-30 20:00;89,25
2017-09-30 20:15;89,95
2017-09-30 20:30;86,9
2017-09-30 20:45;91,65
2017-09-30 21:00;88,9
2017-09-30 21:15;90,65
2017-09-30 21:30;87,6
2017-09-30 21:45;86,95
2017-09-30 22:00;82,7
2017-09-30 22:15;83,5
2017-09-30 22:30;85,6
2017-09-30 22:45;81,55
2017-09-30 23:00;85,25
2017-09-30 23:15;77,25
2017-09-30 23:30;77,15
2017-09-30 23:45;76,1
2017-10-01 00:00;77,15
2017-10-01 00:15;76,8
2017-10-01 00:30;76,1
2017-10-01 00:45;78,15
2017-10-01 01:00;75,6
2017-10-01 01:15;75,75
2017-10-01 01:30;76,95
2017-10-01 01:45;75,4
2017-10-01 02:00;77,3
2017-10-01 02:15;76,15
2017-10-01 02:30;80,8
2017-10-01 02:45;78,55
2017-10-01 03:00;77,6
2017-10-01 03:15;79,8
2017-10-01 03:30;78,1
2017-10-01 03:45;80,95
2017-10-01 04:00;79,2
2017-10-01 04:15;80,1
2017-10-01 04:30;78,7
2017-10-01 04:45;79,45
2017-10-01 05:00;80,15
2017-10-01 05:15;78,75
2017-10-01 05:30;81,65
2017-10-01 05:45;80,9
2017-10-01 06:00;85,05
2017-10-01 06:15;83,75
2017-10-01 06:30;87,8
2017-10-01 06:45;85,4
2017-10-01 07:00;82,9
2017-10-01 07:15;79,45
2017-10-01 07:30;76,85
2017-10-01 07:45;73,65
2017-10-01 08:00;74,7
2017-10-01 08:15;70,05
2017-10-01 08:30;70,4
2017-10-01 08:45;70,35
2017-10-01 09:00;70,6
2017-10-01 09:15;70,75
2017-10-01 09:30;69,9
2017-10-01 09:45;71,2
2017-10-01 10:00;71,05
2017-10-01 10:15;73,1
2017-10-01 10:30;71,45
2017-10-01 10:45;73,45
2017-10-01 11:00;75,15
2017-10-01 11:15;74,2
2017-10-01 11:30;74,1
2017-10-01 11:45;72,95
2017-10-01 12:00;80,15
2017-10-01 12:15;77,05
2017-10-01 12:30;76,55
2017-10-01 12:45;74,4
2017-10-01 13:00;73,6
2017-10-01 13:15;78,1
2017-10-01 13:30;72,6
2017-10-01 13:45;74,15
2017-10-01 14:00;75,35
2017-10-01 14:15;74,85
2017-10-01 14:30;77,3
2017-10-01 14:45;74,9
2017-10-01 15:00;75,25
2017-10-01 15:15;73,55
2017-10-01 15:30;78,45
2017-10-01 15:45;77,05
2017-10-01 16:00;75,6
2017-10-01 16:15;76,6
2017-10-01 16:30;71,4
2017-10-01 16:45;74,95
2017-10-01 17:00;78,05
2017-10-01 17:15;75,75
2017-10-01 17:30;75,1
2017-10-01 17:45;78
2017-10-01 18:00;75
2017-10-01 18:15;73,3
2017-10-01 18:30;73,75
2017-10-01 18:45;76,2
2017-10-01 19:00;73,1
2017-10-01 19:15;75,6
2017-10-01 19:30;82,45
2017-10-01 19:45;86,3
2017-10-01 20:00;85,35
2017-10-01 20:15;82,2
2017-10-01 20:30;86
2017-10-01 20:45;87,35
2017-10-01 21:00;86,45
2017-10-01 21:15;86,85
2017-10-01 21:30;87,75
2017-10-01 21:45;85,25
2017-10-01 22:00;82,6
2017-10-01 22:15;86,8
2017-10-01 22:30;86,7
2017-10-01 22:45;87,55
2017-10-01 23:00;86,35
2017-10-01 23:15;81,05
2017-10-01 23:30;80,8
2017-10-01 23:45;79,3

